Probability
0 0 0 0 0 0 0 0 0 0 0 0 0 0 0 0 0 0 0 0 0 0 0 0 0 0 0 0 0 0 0 0 0 0 0 0 0 0 0 0 0 0 0 0
0 0 0 0 0 0 0 0 0 0 0 0 0 0 0 0 0 0 0 0 0 0 0 0 0 0 0 0 0 0 0 0 0 0 0 0 0 0 0 0 0 0 0 0
0 0 0 0 0 0 0 0 0 0 0 0 0 0 0 0 0 0 0 0 0 0 0 0 0 0 0 0 0 0 0 0 0 0 0 0 0 0 0 0 0 0 0 0
0 0 0 0 0 0 0 0 0 0 0 0 0 0 0 0 0 0 0 0 0 0 0 0 0 0 0 0 0 0 0 0 0 0 0 0 0 0 0 0 0 0 0 0
0 0 0 0 0 0 0 0 0 0 0 0 0 0 0 0 0 0 0 0 0 0 0 0 0 0 0 0 0 0 0 0 0 0 0 0 0 0 0 0 0 0 0 0
0 0 0 0 0 0 0 0 0 0 0 0 0 0 0 0 0 0 0 0 0 0 0 0 0 0 0 0 0 0 0 0 0 0 0 0 0 0 0 0 0 0 0 0
0 0 0 0 0 0 0 0 0 0 0 0 0 0 0 0 0 0 0 0 0 0 0 0 0 0 0 0 0 0 0 0 0 0 0 0 0 0 0 0 0 0 0 0
0 0 0 0 0 0 0 0 0 0 0 0 0 0 0 0 0 0 0 0 0 0 0 0 0 0 0 0 0 0 0 0 0 0 0 0 0 0 0 0 0 0 0 0
0 0 0 0 0 0 0 0 0 0 0 0 0 0 0 0 0 0 0 0 0 0 0 0 0 0 0 0 0 0 0 0 0 0 0 0 0 0 0 0 0 0 0 0
0 0 0 0 0 0 0 0 0 0 0 0 0 0 0 0 0 0 0 0 0 0 0 0 0 0 0 0 0 0 0 0 0 0 0 0 0 0 0 0 0 0 0 0
0 0 0 0 0 0 0 0 0 0 0 0 0 0 0 0 0 0 0 0 0 0 0 0 0 0 0 0 0 0 0 0 0 0 0 0 0 0 0 0 0 0 0 0
0 0 0 0 0 0 0 0 0 0 0 0 0 0 0 0 0 0 0 0 0 0 0 0 0 0 0 0 0 0 0 0 0 0 0 0 0 0 0 0 0 0 0 0
0 0 0 0 0 0 0 0 0 0 0 0 0 0 0 0 0 0 0 0 0 0 0 0 0 0 0 0 0 0 0 0 0 0 0 0 0 0 0 0 0 0 0 0
0 0 0 0 0 0 0 0 0 0 0 0 0 0 0 0 0 0 0 0 0 0 0 0 0 0 0 0 0 0 0 0 0 0 0 0 0 0 0 0 0 0 0 0
0 0 0 0 0 0 0 0 0 0 0 0 0 0 0 0 0 0 0 0 0 0 0 0 0 0 0 0 0 0 0 0 0 0 0 0 0 0 0 0 0 0 0 0
0 0 0 0 0 0 0 0 0 0 0 0 0 0 0 0 0 0 0 0 0 0 0 0 0 0 0 0 0 0 0 0 0 0 0 0 0 0 0 0 0 0 0 0
0 0 0 0 0 0 0 0 0 0 0 0 0 0 0 0 0 0 0 0 0 0 0 0 0 0 0 0 0 0 0 0 0 0 0 0 0 0 0 0 0 0 0 0
0 0 0 0 0 0 0 0 0 0 0 0 0 0 0 0 0 0 0 0 0 0 0 0 0 0 0 0 0 0 0 0 0 0 0 0 0 0 0 0 0 0 0 0
0 0 0 0 0 0 0 0 0 0 0 0 0 0 0 0 0 0 0 0 0 0 0 0 0 0 0 0 0 0 0 0 0 0 0 0 0 0 0 0 0 0 0 0
0 0 0 0 0 0 0 0 0 0 0 0 0 0 0 0 0 0 0 0 0 0 0 0 0 0 0 0 0 0 0 0 0 0 0 0 0 0 0 0 0 0 0 0
0 0 0 0 0 0 0 0 0 0 0 0 0 0 0 0 0 0 0 0 0 0 0 0 0 0 0 0 0 0 0 0 0 0 0 0 0 0 0 0 0 0 0 0
0 0 0 0 0 0 0 0 0 0 0 0 0 0 0 0 0 0 0 0 0 0 0 0 0 0 0 0 0 0 0 0 0 0 0 0 0 0 0 0 0 0 0 0
0 0 0 0 0 0 0 0 0 0 0 0 0 0 0 0 0 0 0 0 0 0 0 0 0 0 0 0 0 0 0 0 0 0 0 0 0 0 0 0 0 0 0 0
0 0 0 0 0 0 0 0 0 0 0 0 0 0 0 0 0 0 0 0 0 0 0 0 0 0 0 0 0 0 0 0 0 0 0 0 0 0 0 0 0 0 0 0
0 0 0 0 0 0 0 0 0 0 0 0 0 0 0 0 0 0 0 0 0 0 0 0 0 0 0 0 0 0 0 0 0 0 0 0 0 0 0 0 0 0 0 0
0 0 0 0 0 0 0 0 0 0 0 0 0 0 0 0 0 0 0 0 0 0 0 0 0 0 0 0 0 0 0 0 0 0 0 0 0 0 0 0 0 0 0 0
0 0 0 0 0 0 0 0 0 0 0 0 0 0 0 0 0 0 0 0 0 0 0 0 0 0 0 0 0 0 0 0 0 0 0 0 0 0 0 0 0 0 0 0
Wind_Speed
5 3 4 6 9 11 12 11 11 11 12 14 10 7 6 5 5 5 6 5 5 4 4 4 4 4 4 4 4 4 4 5 6 7 7 6 7 7 7 7 8 7 8 7
4 4 5 7 10 13 14 12 14 13 16 12 8 5 6 6 6 7 7 6 5 5 4 4 4 5 4 4 5 4 4 5 6 6 6 6 7 7 7 7 7 7 7 7
4 2 1 10 13 15 10 11 11 17 16 6 6 7 8 8 7 7 6 6 5 5 5 5 5 5 5 5 5 4 5 6 6 6 7 7 8 7 7 7 7 7 7 6
2 2 10 10 5 10 12 12 13 11 9 7 8 7 6 6 6 6 6 5 5 4 5 4 4 4 4 4 4 4 5 6 6 6 7 7 7 7 7 6 6 6 6 6
4 5 9 9 5 8 9 10 11 13 12 9 4 3 6 5 4 5 6 5 5 4 4 4 4 4 4 4 4 4 5 6 6 6 7 7 7 7 6 6 6 6 6 6
5 5 9 8 3 3 4 7 5 7 9 5 2 2 7 4 3 3 3 3 3 3 3 3 4 3 3 4 4 5 6 6 6 6 6 7 7 7 6 5 6 6 6 5
8 7 10 6 2 4 5 8 3 4 5 4 5 7 4 2 2 2 3 3 3 2 3 3 3 2 3 4 5 6 6 6 6 6 6 7 6 5 5 6 6 6 6 6
6 8 10 1 4 6 6 3 2 2 3 2 3 2 2 2 2 3 4 4 3 3 3 3 2 1 3 5 6 5 5 6 6 6 6 6 6 6 5 5 5 5 5 6
8 8 4 4 5 5 3 3 2 1 2 1 1 2 2 2 3 3 3 4 3 2 3 4 3 2 3 5 5 5 5 6 6 7 6 5 5 6 5 4 4 4 4 5
4 7 5 4 3 2 1 2 2 1 1 1 1 3 3 3 3 3 4 4 4 3 4 4 4 3 4 5 5 5 5 6 6 6 6 5 4 4 4 4 4 4 4 5
6 6 4 4 4 4 2 1 1 2 2 2 2 3 3 3 4 4 4 4 3 3 4 5 5 5 5 4 4 5 5 6 6 5 5 5 5 4 5 4 4 5 4 4
8 6 4 4 3 3 3 3 3 3 3 2 2 3 3 4 4 4 4 4 4 4 4 5 5 5 5 5 4 4 5 5 5 4 4 4 4 5 7 7 9 9 9 8
5 3 4 4 3 2 3 3 3 2 2 2 2 2 2 3 3 3 4 4 4 4 5 5 5 5 5 5 4 4 5 6 5 4 4 5 5 5 6 8 8 9 9 9
3 2 2 3 3 2 1 1 0 0 1 1 2 2 2 3 3 3 4 4 4 4 4 4 5 6 6 5 5 5 5 6 5 4 4 4 4 5 5 6 6 6 7 8
4 4 4 3 2 1 0 0 0 1 2 2 2 2 2 3 4 4 4 4 4 4 5 5 6 6 6 5 5 5 5 4 4 4 4 4 4 4 4 5 5 5 5 6
2 1 2 2 2 1 0 1 1 1 2 2 2 2 3 3 3 3 4 3 3 5 6 6 7 7 6 5 5 5 4 7 7 4 4 4 4 4 4 4 5 5 5 5
2 2 1 1 1 1 1 1 1 1 1 2 2 3 3 3 3 4 5 4 4 4 5 6 7 7 6 6 5 4 4 5 7 5 4 4 4 4 4 4 4 4 4 5
2 3 3 3 2 1 0 1 1 1 1 2 2 2 2 2 3 4 5 5 5 5 5 6 6 7 6 5 4 4 4 4 3 3 4 4 4 4 3 3 4 4 4 5
1 1 1 1 1 1 0 0 1 1 1 1 2 2 2 2 3 4 4 5 5 6 7 7 10 7 6 7 7 3 3 4 4 4 4 5 5 4 4 4 4 4 4 4
2 2 2 2 2 1 1 1 1 1 2 2 2 2 3 3 4 4 4 4 4 5 6 8 7 6 6 6 7 3 4 4 4 4 4 4 4 4 4 4 4 4 3 3
3 3 4 3 3 3 2 2 2 2 2 2 2 2 3 4 4 4 4 5 5 6 7 9 6 5 5 6 7 4 4 4 4 4 4 4 4 4 4 4 4 4 3 3
3 3 3 3 3 3 3 2 2 2 2 3 3 3 3 4 5 4 3 4 6 9 7 5 4 7 8 9 4 4 4 4 4 4 4 4 4 4 4 4 4 4 3 3
3 3 3 3 3 2 3 3 2 2 2 3 3 3 3 4 4 4 5 5 5 9 7 5 8 11 12 7 4 4 4 5 4 4 4 4 4 3 3 4 4 4 3 3
3 4 3 3 3 3 3 4 3 3 3 3 3 3 3 3 4 3 4 8 11 11 6 8 12 12 11 5 4 4 4 4 4 4 4 4 3 3 3 3 3 3 3 3
3 3 3 3 3 2 2 3 3 3 3 3 4 4 3 3 3 4 5 6 9 9 6 8 12 12 7 4 4 4 4 4 4 4 4 4 4 3 3 3 3 3 3 2
3 2 2 2 1 1 2 2 2 2 3 3 4 4 4 4 4 4 4 5 7 8 7 5 6 7 5 5 5 5 4 5 5 4 4 4 4 4 3 3 4 3 2 2
2 2 2 2 2 2 2 2 2 3 3 3 4 4 5 4 4 5 5 5 5 5 5 5 5 5 5 5 5 4 4 4 4 4 4 3 3 3 3 4 3 2 2 1
Wind_Direction
241 229 183 205 209 196 203 207 214 237 243 258 259 256 260 262 268 271 275 278 275 272 275 280 285 289 288 290 291 291 293 293 288 288 288 285 285 286 285 282 281 279 279 276
252 226 220 245 234 216 220 223 236 255 263 256 258 258 260 259 258 262 269 272 274 276 278 278 278 283 288 291 293 292 290 290 290 295 298 295 292 290 289 287 284 283 279 277
244 237 265 252 223 208 210 211 209 234 247 257 260 250 247 251 252 256 265 269 269 272 267 267 271 273 279 284 292 294 291 294 296 298 299 298 298 300 295 291 286 285 279 275
214 159 231 242 207 199 215 231 221 238 255 247 245 254 254 238 230 252 260 268 273 271 269 271 267 272 283 289 291 290 293 297 297 299 298 300 302 302 299 294 290 286 282 277
192 226 264 279 235 190 202 249 229 236 253 256 261 303 285 258 239 244 259 267 269 266 269 276 276 278 289 293 294 293 293 294 296 297 299 303 303 303 303 303 299 292 291 287
195 212 236 247 240 182 140 264 249 226 245 248 153 244 269 284 290 283 291 289 284 285 295 290 289 288 292 291 294 293 292 293 296 297 299 300 300 300 302 301 297 300 299 294
215 227 253 261 262 123 177 248 285 233 235 212 198 222 247 289 318 313 309 303 307 308 300 287 290 293 298 301 294 290 295 299 301 301 298 297 300 302 306 305 305 305 303 302
196 220 244 232 127 182 226 270 285 273 254 228 231 252 276 297 309 321 321 322 328 328 314 311 318 319 303 298 297 303 306 305 304 305 305 310 307 305 306 306 305 307 309 309
198 220 250 186 205 232 224 227 238 242 270 211 260 274 288 293 300 307 308 313 320 318 314 320 325 323 301 299 303 306 310 309 309 311 312 311 307 308 311 310 304 308 313 315
245 262 267 255 245 269 240 230 250 206 193 190 257 281 294 295 299 304 306 305 312 317 317 316 318 312 293 298 306 308 312 312 314 316 318 319 318 314 313 311 307 304 307 310
242 261 285 277 239 237 252 221 242 260 248 232 236 270 278 286 292 295 302 306 309 307 308 309 315 315 314 314 319 317 314 312 314 314 313 322 325 321 314 307 297 298 300 301
231 222 211 245 242 222 216 229 229 234 271 274 240 254 273 284 291 298 304 309 315 314 311 312 315 317 319 319 319 314 315 314 312 312 313 315 320 326 329 320 318 312 309 306
230 235 228 245 255 243 224 237 241 221 227 266 284 267 278 289 298 308 312 316 315 313 314 316 319 318 319 322 320 312 308 309 310 312 312 316 320 321 322 329 331 326 323 321
229 225 260 259 256 267 235 249 265 307 291 281 290 305 304 302 308 312 306 304 310 319 324 324 322 317 321 323 322 316 310 308 309 307 310 314 315 313 312 317 323 326 330 331
254 229 226 239 255 279 246 142 48 333 335 335 328 318 310 305 304 304 309 321 333 337 331 329 325 319 324 325 321 314 313 311 308 307 309 310 312 313 313 313 312 314 320 327
264 225 187 194 224 257 248 166 207 287 306 305 317 315 307 303 307 318 328 336 337 327 322 323 319 318 324 323 322 319 317 317 319 316 314 316 316 315 315 315 315 314 318 320
182 220 221 217 229 251 260 243 227 257 310 318 313 317 331 344 347 341 335 331 319 309 312 313 311 318 322 321 319 314 315 318 322 322 318 314 313 310 308 307 307 309 312 320
198 203 198 189 191 197 314 353 1 356 320 308 328 354 1 355 333 323 324 328 331 328 325 318 317 322 323 324 319 311 313 316 319 316 315 318 318 313 310 308 310 310 314 326
116 143 138 128 145 152 169 354 359 346 347 4 9 351 333 324 317 316 323 333 335 326 321 322 323 328 323 322 324 314 316 316 318 318 317 317 319 319 317 315 313 313 316 322
66 80 87 82 66 85 95 63 42 28 13 16 13 0 346 333 328 326 325 317 304 293 301 312 316 315 315 318 324 317 316 315 315 315 315 315 316 317 318 317 314 315 320 324
58 69 75 75 61 52 56 61 61 32 6 11 12 344 325 322 326 327 327 319 314 316 316 319 322 317 317 319 321 320 318 315 312 310 310 311 314 316 318 319 320 321 322 325
57 66 68 72 74 50 27 33 43 30 12 3 358 347 337 331 329 324 305 293 304 320 325 318 317 322 325 324 322 323 320 316 312 308 307 309 310 311 315 318 318 318 322 329
59 61 59 56 59 46 27 28 28 26 8 350 340 331 322 313 313 314 313 316 317 321 323 316 321 327 329 330 329 327 324 319 314 310 306 304 302 303 307 312 314 316 320 325
60 55 49 45 51 53 32 6 4 4 355 338 330 323 317 317 317 311 299 313 323 324 322 322 329 332 334 336 330 325 320 316 312 310 307 306 304 305 306 306 309 313 316 321
59 56 52 48 42 28 8 357 1 359 356 346 337 333 328 315 304 308 310 312 319 326 324 328 333 336 337 329 325 321 317 314 313 312 310 309 308 307 304 304 305 308 311 314
48 45 28 15 2 345 339 346 347 341 343 341 336 334 331 326 319 314 315 317 318 324 326 323 325 329 327 321 319 317 315 315 317 317 312 309 310 307 304 306 308 307 308 310
41 36 32 22 7 353 344 341 340 333 331 327 324 324 325 326 326 326 325 324 323 323 321 322 325 324 321 319 319 319 316 314 311 309 308 307 305 302 303 303 305 306 308 312